Location: Winthrop
(48.4780°N, 120.1850°W)
Time: 12:18:50
(UTC-07:00)

CUTE 1.7 + AOD 2 - Visible Passes

Search period start: 16 May 2022 00:00
Search period end: 26 May 2022 00:00
Orbit: 591 x 608 km, 97.7° (Epoch: 16 May)

Date Brightness Start Highest point End Pass type
(mag) Time Alt. Az. Time Alt. Az. Time Alt. Az.
16 May ? 04:25:51 10° NNE 04:29:44 33° E 04:33:37 10° SSE visible
17 May ? 04:36:40 10° NNE 04:40:46 43° E 04:44:50 10° S visible
20 May ? 03:36:21 10° ENE 03:37:22 11° E 03:38:23 10° E visible
21 May ? 03:46:12 10° ENE 03:48:28 14° E 03:50:43 10° ESE visible
22 May ? 03:56:36 10° NE 03:59:32 18° E 04:02:26 10° SE visible
23 May ? 04:07:10 10° NE 04:10:34 22° E 04:13:57 10° SE visible
24 May ? 04:17:51 10° NE 04:21:35 28° E 04:25:17 10° SSE visible
